• în România
  • Lista ţărilor
  • Pe 7 zile
  • Temperatura apei
  • Hartă satelitară
  • Meteo pe hartă
  • Widget-uri
  • user-avatar
    Intrare

    Meteo pe oră la Makedonovka

    Astăzi, 16 August, Joi

    Timp Temperatura Precipitaţii Vânt Presiune Umiditate
    00:00 +19°C° 0 mm 2 m/s 743 mmHg 51%
    01:00 +19°C° 0 mm 2 m/s 742 mmHg 53%
    02:00 +19°C° 0 mm 2 m/s 742 mmHg 54%
    03:00 +18°C° 0 mm 2 m/s 743 mmHg 55%
    04:00 +18°C° 0 mm 2 m/s 743 mmHg 57%
    05:00 +18°C° 0 mm 2 m/s 743 mmHg 58%
    06:00 +19°C° 0 mm 2 m/s 743 mmHg 59%
    07:00 +21°C° 0 mm 3 m/s 743 mmHg 54%
    08:00 +23°C° 0 mm 4 m/s 743 mmHg 50%
    09:00 +27°C° 0 mm 4 m/s 743 mmHg 44%
    10:00 +28°C° 0 mm 4 m/s 743 mmHg 42%
    11:00 +29°C° 0 mm 4 m/s 743 mmHg 40%
    12:00 +30°C° 0 mm 4 m/s 743 mmHg 38%
    13:00 +30°C° 0 mm 4 m/s 742 mmHg 38%
    14:00 +31°C° 0 mm 3 m/s 742 mmHg 37%
    15:00 +31°C° 0 mm 3 m/s 742 mmHg 37%
    16:00 +30°C° 0 mm 3 m/s 742 mmHg 40%
    17:00 +30°C° 0 mm 2 m/s 742 mmHg 44%
    18:00 +29°C° 0 mm 2 m/s 741 mmHg 47%
    19:00 +27°C° 0 mm 2 m/s 741 mmHg 50%
    20:00 +26°C° 0 mm 1 m/s 741 mmHg 53%
    21:00 +24°C° 0 mm 1 m/s 741 mmHg 56%
    22:00 +23°C° 0 mm 1 m/s 741 mmHg 57%
    23:00 +23°C° 0 mm 1 m/s 741 mmHg 58%

    Mâine, 17 August, Vineri

    Timp Temperatura Precipitaţii Vânt Presiune Umiditate
    00:00 +22°C° 0 mm 1 m/s 741 mmHg 59%
    01:00 +22°C° 0 mm 1 m/s 741 mmHg 60%
    02:00 +22°C° 0 mm 1 m/s 741 mmHg 62%
    03:00 +21°C° 0 mm 1 m/s 741 mmHg 63%
    04:00 +21°C° 0,2 mm 1 m/s 741 mmHg 66%
    05:00 +21°C° 0,2 mm 1 m/s 741 mmHg 69%
    06:00 +21°C° 0,2 mm 1 m/s 741 mmHg 72%
    07:00 +23°C° 0 mm 2 m/s 741 mmHg 68%
    08:00 +24°C° 0 mm 2 m/s 741 mmHg 64%
    09:00 +26°C° 0 mm 3 m/s 742 mmHg 60%
    10:00 +27°C° 0,6 mm 3 m/s 742 mmHg 58%
    11:00 +27°C° 0,6 mm 3 m/s 742 mmHg 57%
    12:00 +28°C° 0,6 mm 4 m/s 742 mmHg 55%
    13:00 +27°C° 0,4 mm 4 m/s 742 mmHg 58%
    14:00 +27°C° 0,4 mm 5 m/s 742 mmHg 60%
    15:00 +26°C° 0,4 mm 5 m/s 741 mmHg 63%
    16:00 +25°C° 0,1 mm 5 m/s 741 mmHg 65%
    17:00 +23°C° 0,1 mm 5 m/s 741 mmHg 66%
    18:00 +22°C° 0,1 mm 5 m/s 741 mmHg 67%
    19:00 +21°C° 0 mm 5 m/s 742 mmHg 68%
    20:00 +19°C° 0 mm 4 m/s 742 mmHg 68%
    21:00 +18°C° 0 mm 4 m/s 743 mmHg 68%
    22:00 +17°C° 0 mm 4 m/s 743 mmHg 69%
    23:00 +15°C° 0 mm 4 m/s 743 mmHg 71%

    Poimâine, 18 August, Sâmbătă

    Timp Temperatura Precipitaţii Vânt Presiune Umiditate
    00:00 +15°C° 0 mm 4 m/s 743 mmHg 73%
    01:00 +14°C° 0 mm 4 m/s 743 mmHg 75%
    02:00 +14°C° 0 mm 4 m/s 743 mmHg 77%
    03:00 +13°C° 0 mm 4 m/s 743 mmHg 79%
    04:00 +13°C° 0 mm 4 m/s 743 mmHg 79%
    05:00 +13°C° 0 mm 4 m/s 743 mmHg 79%
    06:00 +13°C° 0 mm 4 m/s 744 mmHg 79%
    07:00 +15°C° 0 mm 5 m/s 744 mmHg 71%
    08:00 +17°C° 0 mm 5 m/s 744 mmHg 62%
    09:00 +19°C° 0 mm 5 m/s 744 mmHg 54%
    10:00 +20°C° 0 mm 5 m/s 744 mmHg 51%
    11:00 +21°C° 0 mm 5 m/s 744 mmHg 48%
    12:00 +22°C° 0 mm 5 m/s 744 mmHg 45%
    13:00 +22°C° 0 mm 5 m/s 744 mmHg 44%
    14:00 +23°C° 0 mm 5 m/s 744 mmHg 44%
    15:00 +23°C° 0 mm 5 m/s 744 mmHg 43%
    16:00 +22°C° 0 mm 4 m/s 744 mmHg 47%
    17:00 +21°C° 0 mm 4 m/s 744 mmHg 51%
    18:00 +21°C° 0 mm 3 m/s 744 mmHg 54%
    19:00 +19°C° 0 mm 3 m/s 744 mmHg 59%
    20:00 +17°C° 0 mm 3 m/s 744 mmHg 63%
    21:00 +16°C° 0 mm 3 m/s 745 mmHg 67%
    22:00 +14°C° 0 mm 3 m/s 745 mmHg 68%
    23:00 +13°C° 0 mm 3 m/s 745 mmHg 69%

    19 August, Duminică

    Timp Temperatura Precipitaţii Vânt Presiune Umiditate
    00:00 +12°C° 0 mm 3 m/s 745 mmHg 70%
    01:00 +12°C° 0 mm 3 m/s 745 mmHg 72%
    02:00 +11°C° 0 mm 3 m/s 745 mmHg 73%
    03:00 +11°C° 0 mm 3 m/s 745 mmHg 74%
    04:00 +11°C° 0 mm 3 m/s 745 mmHg 75%
    05:00 +11°C° 0 mm 3 m/s 745 mmHg 76%
    06:00 +11°C° 0 mm 3 m/s 745 mmHg 77%
    07:00 +13°C° 0 mm 3 m/s 745 mmHg 70%
    08:00 +15°C° 0 mm 4 m/s 746 mmHg 63%
    09:00 +18°C° 0 mm 4 m/s 746 mmHg 56%
    10:00 +19°C° 0 mm 4 m/s 745 mmHg 52%
    11:00 +20°C° 0 mm 4 m/s 745 mmHg 48%
    12:00 +21°C° 0 mm 4 m/s 745 mmHg 45%
    13:00 +21°C° 0 mm 4 m/s 745 mmHg 44%
    14:00 +22°C° 0 mm 4 m/s 745 mmHg 43%
    15:00 +22°C° 0 mm 4 m/s 744 mmHg 43%
    16:00 +21°C° 0 mm 4 m/s 744 mmHg 46%
    17:00 +21°C° 0 mm 3 m/s 744 mmHg 50%
    18:00 +20°C° 0 mm 3 m/s 744 mmHg 53%
    19:00 +18°C° 0 mm 3 m/s 744 mmHg 56%
    20:00 +17°C° 0 mm 2 m/s 744 mmHg 59%
    21:00 +15°C° 0 mm 2 m/s 744 mmHg 63%
    22:00 +14°C° 0 mm 2 m/s 744 mmHg 64%
    23:00 +14°C° 0 mm 2 m/s 744 mmHg 66%

    20 August, Luni

    Timp Temperatura Precipitaţii Vânt Presiune Umiditate
    00:00 +13°C° 0 mm 2 m/s 744 mmHg 68%
    01:00 +12°C° 0 mm 1 m/s 744 mmHg 69%
    02:00 +12°C° 0 mm 1 m/s 744 mmHg 71%
    03:00 +12°C° 0 mm 1 m/s 744 mmHg 73%
    04:00 +12°C° 0 mm 1 m/s 745 mmHg 74%
    05:00 +12°C° 0 mm 1 m/s 745 mmHg 75%
    06:00 +12°C° 0 mm 1 m/s 745 mmHg 75%
    07:00 +14°C° 0 mm 1 m/s 745 mmHg 68%
    08:00 +16°C° 0 mm 2 m/s 745 mmHg 62%
    09:00 +18°C° 0 mm 2 m/s 745 mmHg 55%
    10:00 +19°C° 0 mm 2 m/s 745 mmHg 50%
    11:00 +20°C° 0 mm 2 m/s 745 mmHg 45%
    12:00 +21°C° 0 mm 2 m/s 745 mmHg 40%
    13:00 +23°C° 0 mm 1 m/s 745 mmHg 38%
    14:00 +23°C° 0 mm 1 m/s 745 mmHg 37%
    15:00 +24°C° 0 mm 1 m/s 744 mmHg 35%
    16:00 +23°C° 0 mm 1 m/s 744 mmHg 38%
    17:00 +23°C° 0 mm 1 m/s 744 mmHg 41%
    18:00 +22°C° 0 mm 1 m/s 744 mmHg 44%
    19:00 +21°C° 0 mm 1 m/s 744 mmHg 46%
    20:00 +19°C° 0 mm 1 m/s 744 mmHg 47%
    21:00 +16°C° 0 mm 1 m/s 744 mmHg 49%
    22:00 +16°C° 0 mm 1 m/s 744 mmHg 50%
    23:00 +15°C° 0 mm 1 m/s 744 mmHg 51%

    21 August, Marţi

    Timp Temperatura Precipitaţii Vânt Presiune Umiditate
    00:00 +15°C° 0 mm 1 m/s 744 mmHg 52%
    01:00 +14°C° 0 mm 1 m/s 744 mmHg 53%
    02:00 +14°C° 0 mm 1 m/s 744 mmHg 53%
    03:00 +14°C° 0 mm 1 m/s 744 mmHg 54%
    04:00 +14°C° 0 mm 1 m/s 744 mmHg 55%
    05:00 +14°C° 0 mm 1 m/s 745 mmHg 56%
    06:00 +14°C° 0 mm 1 m/s 745 mmHg 57%
    07:00 +16°C° 0 mm 1 m/s 745 mmHg 52%
    08:00 +19°C° 0 mm 2 m/s 745 mmHg 47%
    09:00 +21°C° 0 mm 2 m/s 745 mmHg 42%
    10:00 +23°C° 0 mm 2 m/s 745 mmHg 39%
    11:00 +24°C° 0 mm 2 m/s 745 mmHg 37%
    12:00 +25°C° 0 mm 3 m/s 745 mmHg 34%
    13:00 +26°C° 0 mm 3 m/s 745 mmHg 33%
    14:00 +26°C° 0 mm 3 m/s 745 mmHg 33%
    15:00 +26°C° 0 mm 3 m/s 744 mmHg 32%
    16:00 +26°C° 0 mm 2 m/s 744 mmHg 36%
    17:00 +25°C° 0 mm 2 m/s 744 mmHg 39%
    18:00 +24°C° 0 mm 1 m/s 744 mmHg 43%
    19:00 +22°C° 0 mm 1 m/s 744 mmHg 45%
    20:00 +21°C° 0 mm 1 m/s 744 mmHg 48%
    21:00 +19°C° 0 mm 1 m/s 744 mmHg 50%
    22:00 +19°C° 0 mm 1 m/s 744 mmHg 50%
    23:00 +18°C° 0 mm 1 m/s 744 mmHg 51%
    Arată mai mult